Time,TemperatureF,DewpointF,PressureIn,WindDirection,WindDirectionDegrees,WindSpeedMPH,WindSpeedGustMPH,Humidity,HourlyPrecipIn,Conditions,Clouds,dailyrainin,SoftwareType,DateUTC
2013-08-01 00:08:00,71.1,68.0,30.11,SSW,202,2.2,-999.0,90,-99.99,,,0.00,Acu-Link.com,2013-08-01 05:08:00,
2013-08-01 00:23:00,71.1,68.0,30.10,SSW,202,0.0,-999.0,90,-99.99,,,0.00,Acu-Link.com,2013-08-01 05:23:00,
2013-08-01 00:38:00,71.1,68.0,30.10,West,270,0.0,-999.0,90,-99.99,,,0.00,Acu-Link.com,2013-08-01 05:38:00,
2013-08-01 00:53:00,70.7,67.9,30.09,SSW,202,2.2,-999.0,91,-99.99,,,0.00,Acu-Link.com,2013-08-01 05:53:00,
2013-08-01 01:09:00,70.3,67.5,30.10,SSW,202,0.0,-999.0,91,-99.99,,,0.00,Acu-Link.com,2013-08-01 06:09:00,
2013-08-01 01:24:00,70.3,67.9,30.09,SSW,202,1.7,-999.0,92,-99.99,,,0.00,Acu-Link.com,2013-08-01 06:24:00,
2013-08-01 01:39:00,70.3,67.9,30.09,SW,225,2.2,-999.0,92,-99.99,,,0.00,Acu-Link.com,2013-08-01 06:39:00,
2013-08-01 01:54:00,70.0,67.6,30.10,NE,45,3.2,-999.0,92,-99.99,,,0.00,Acu-Link.com,2013-08-01 06:54:00,
2013-08-01 02:09:00,68.7,67.5,30.09,South,180,0.0,-999.0,96,-99.99,,,0.00,Acu-Link.com,2013-08-01 07:09:00,
2013-08-01 02:25:00,68.2,66.7,30.09,WSW,247,0.0,-999.0,95,-99.99,,,0.00,Acu-Link.com,2013-08-01 07:25:00,
2013-08-01 02:40:00,67.8,66.9,30.10,NNE,22,2.2,-999.0,97,-99.99,,,0.00,Acu-Link.com,2013-08-01 07:40:00,
2013-08-01 02:55:00,67.6,67.0,30.10,WSW,247,0.0,-999.0,98,-99.99,,,0.00,Acu-Link.com,2013-08-01 07:55:00,
2013-08-01 03:10:00,67.5,67.2,30.09,SSW,202,0.0,-999.0,99,-99.99,,,0.00,Acu-Link.com,2013-08-01 08:10:00,
2013-08-01 03:25:00,67.5,67.2,30.09,SW,225,0.0,-999.0,99,-99.99,,,0.00,Acu-Link.com,2013-08-01 08:25:00,
2013-08-01 03:41:00,67.5,67.2,30.09,South,180,0.0,-999.0,99,-99.99,,,0.00,Acu-Link.com,2013-08-01 08:41:00,
2013-08-01 04:11:00,67.3,67.0,30.09,SSW,202,0.0,-999.0,99,-99.99,,,0.00,Acu-Link.com,2013-08-01 09:11:00,
2013-08-01 04:41:00,66.9,66.6,30.10,SE,135,0.0,-999.0,99,-99.99,,,0.00,Acu-Link.com,2013-08-01 09:41:00,
2013-08-01 04:56:00,66.0,65.7,30.10,NNW,337,0.0,-999.0,99,-99.99,,,0.00,Acu-Link.com,2013-08-01 09:56:00,
2013-08-01 05:12:00,65.7,65.4,30.10,SSW,202,0.0,-999.0,99,-99.99,,,0.00,Acu-Link.com,2013-08-01 10:12:00,
2013-08-01 05:42:00,65.8,65.5,30.10,SSW,202,0.0,-999.0,99,-99.99,,,0.00,Acu-Link.com,2013-08-01 10:42:00,
2013-08-01 05:57:00,65.8,65.5,30.11,WSW,247,0.0,-999.0,99,-99.99,,,0.00,Acu-Link.com,2013-08-01 10:57:00,
2013-08-01 06:13:00,65.5,65.2,30.11,SSE,157,0.0,-999.0,99,-99.99,,,0.00,Acu-Link.com,2013-08-01 11:13:00,
2013-08-01 06:28:00,65.3,65.0,30.11,SW,225,0.0,-999.0,99,-99.99,,,0.00,Acu-Link.com,2013-08-01 11:28:00,
2013-08-01 06:43:00,64.8,64.5,30.12,SSE,157,0.0,-999.0,99,-99.99,,,0.00,Acu-Link.com,2013-08-01 11:43:00,
2013-08-01 06:58:00,65.3,65.0,30.11,SSE,157,0.0,-999.0,99,-99.99,,,0.00,Acu-Link.com,2013-08-01 11:58:00,
2013-08-01 07:13:00,65.8,65.5,30.11,WSW,247,0.0,-999.0,99,-99.99,,,0.00,Acu-Link.com,2013-08-01 12:13:00,
2013-08-01 07:29:00,68.7,68.4,30.12,NNE,22,0.0,-999.0,99,-99.99,,,0.00,Acu-Link.com,2013-08-01 12:29:00,
2013-08-01 07:44:00,70.2,69.3,30.11,SE,135,0.0,-999.0,97,-99.99,,,0.00,Acu-Link.com,2013-08-01 12:44:00,
2013-08-01 08:14:00,73.8,69.7,30.12,NNW,337,1.7,-999.0,87,-99.99,,,0.00,Acu-Link.com,2013-08-01 13:14:00,
2013-08-01 08:30:00,76.6,70.3,30.12,SSE,157,1.7,-999.0,81,-99.99,,,0.00,Acu-Link.com,2013-08-01 13:30:00,
2013-08-01 10:31:00,84.9,71.8,30.11,SE,135,3.7,-999.0,65,-99.99,,,0.00,Acu-Link.com,2013-08-01 15:31:00,
2013-08-01 11:17:00,89.6,71.8,30.11,South,180,2.2,-999.0,56,-99.99,,,0.00,Acu-Link.com,2013-08-01 16:17:00,
2013-08-01 11:47:00,92.7,70.7,30.11,ESE,112,3.2,-999.0,49,-99.99,,,0.00,Acu-Link.com,2013-08-01 16:47:00,
2013-08-01 12:18:00,94.6,69.9,30.10,SSE,157,4.2,-999.0,45,-99.99,,,0.00,Acu-Link.com,2013-08-01 17:18:00,
2013-08-01 12:33:00,91.8,68.0,30.10,SSE,157,5.3,-999.0,46,-99.99,,,0.00,Acu-Link.com,2013-08-01 17:33:00,
2013-08-01 12:48:00,92.8,67.6,30.10,NNW,337,0.0,-999.0,44,-99.99,,,0.00,Acu-Link.com,2013-08-01 17:48:00,
2013-08-01 13:03:00,92.8,68.3,30.09,SSE,157,2.2,-999.0,45,-99.99,,,0.00,Acu-Link.com,2013-08-01 18:03:00,
2013-08-01 13:19:00,95.5,68.7,30.08,ESE,112,1.7,-999.0,42,-99.99,,,0.00,Acu-Link.com,2013-08-01 18:19:00,
2013-08-01 13:34:00,95.2,66.3,30.07,SE,135,2.7,-999.0,39,-99.99,,,0.00,Acu-Link.com,2013-08-01 18:34:00,
2013-08-01 14:04:00,96.3,64.1,30.07,ENE,67,3.7,-999.0,35,-99.99,,,0.00,Acu-Link.com,2013-08-01 19:04:00,
2013-08-01 14:50:00,92.5,65.3,30.03,SSW,202,6.3,-999.0,41,-99.99,,,0.00,Acu-Link.com,2013-08-01 19:50:00,
2013-08-01 15:21:00,92.1,67.0,30.02,South,180,3.7,-999.0,44,-99.99,,,0.00,Acu-Link.com,2013-08-01 20:21:00,
2013-08-01 15:36:00,91.2,66.2,30.00,SSW,202,5.3,-999.0,44,-99.99,,,0.00,Acu-Link.com,2013-08-01 20:36:00,
2013-08-01 16:21:00,91.2,65.5,30.00,SSW,202,3.2,-999.0,43,-99.99,,,0.00,Acu-Link.com,2013-08-01 21:21:00,
2013-08-01 16:37:00,93.0,67.1,30.01,South,180,5.8,-999.0,43,-99.99,,,0.00,Acu-Link.com,2013-08-01 21:37:00,
2013-08-01 16:52:00,91.0,66.0,30.00,ESE,112,6.8,-999.0,44,-99.99,,,0.00,Acu-Link.com,2013-08-01 21:52:00,
2013-08-01 17:38:00,87.8,66.2,29.98,South,180,3.7,-999.0,49,-99.99,,,0.00,Acu-Link.com,2013-08-01 22:38:00,
2013-08-01 17:53:00,86.0,67.4,29.97,ESE,112,3.7,-999.0,54,-99.99,,,0.00,Acu-Link.com,2013-08-01 22:53:00,
2013-08-01 18:08:00,86.5,68.4,29.97,ESE,112,3.7,-999.0,55,-99.99,,,0.00,Acu-Link.com,2013-08-01 23:08:00,
2013-08-01 18:54:00,82.4,67.6,29.97,SSE,157,2.7,-999.0,61,-99.99,,,0.00,Acu-Link.com,2013-08-01 23:54:00,
2013-08-01 19:09:00,80.2,66.9,29.96,SE,135,0.0,-999.0,64,-99.99,,,0.00,Acu-Link.com,2013-08-02 00:09:00,
2013-08-01 19:39:00,78.4,65.6,29.96,SSE,157,3.7,-999.0,65,-99.99,,,0.00,Acu-Link.com,2013-08-02 00:39:00,
2013-08-01 19:54:00,78.1,64.9,29.96,South,180,2.7,-999.0,64,-99.99,,,0.00,Acu-Link.com,2013-08-02 00:54:00,
2013-08-01 20:25:00,76.8,67.5,29.97,SSE,157,3.7,-999.0,73,-99.99,,,0.00,Acu-Link.com,2013-08-02 01:25:00,
2013-08-01 20:40:00,75.0,68.0,29.96,East,90,5.8,-999.0,79,-99.99,,,0.00,Acu-Link.com,2013-08-02 01:40:00,
2013-08-01 20:56:00,74.5,67.9,29.97,ENE,67,4.7,-999.0,80,-99.99,,,0.00,Acu-Link.com,2013-08-02 01:56:00,
2013-08-01 21:11:00,73.4,69.3,29.99,NNW,337,3.7,-999.0,87,-99.99,,,0.00,Acu-Link.com,2013-08-02 02:11:00,
2013-08-01 21:41:00,71.4,68.6,30.03,NW,315,3.7,-999.0,91,-99.99,,,0.04,Acu-Link.com,2013-08-02 02:41:00,
2013-08-01 21:56:00,70.2,68.1,30.04,NNW,337,7.8,-999.0,93,-99.99,,,0.06,Acu-Link.com,2013-08-02 02:56:00,
2013-08-01 22:12:00,69.4,67.6,30.07,NW,315,8.3,-999.0,94,-99.99,,,0.10,Acu-Link.com,2013-08-02 03:12:00,
2013-08-01 22:27:00,68.5,67.0,30.09,WNW,292,4.2,-999.0,95,-99.99,,,0.13,Acu-Link.com,2013-08-02 03:27:00,
2013-08-01 22:42:00,67.5,66.0,30.08,WNW,292,6.3,-999.0,95,-99.99,,,0.24,Acu-Link.com,2013-08-02 03:42:00,
2013-08-01 22:57:00,66.7,65.5,30.05,South,180,2.7,-999.0,96,-99.99,,,0.30,Acu-Link.com,2013-08-02 03:57:00,
2013-08-01 23:12:00,66.0,65.1,30.02,SSW,202,6.8,-999.0,97,-99.99,,,0.36,Acu-Link.com,2013-08-02 04:12:00,
2013-08-01 23:28:00,66.6,65.4,29.99,SW,225,10.9,-999.0,96,-99.99,,,0.42,Acu-Link.com,2013-08-02 04:28:00,
2013-08-01 23:43:00,67.3,66.1,29.92,ESE,112,11.4,-999.0,96,-99.99,,,0.53,Acu-Link.com,2013-08-02 04:43:00,
2013-08-01 23:58:00,67.8,64.4,29.89,SE,135,18.6,-999.0,89,-99.99,,,0.56,Acu-Link.com,2013-08-02 04:58:00,